Change the Weather History Date:

Wednesday, May 15, 2013

  Actual Average Record
Temperature  
Mean Temperature 71 °F 59 °F  
Max Temperature 86 °F 73 °F 94 °F (1936)
Min Temperature 55 °F 46 °F 24 °F (1907)
Degree Days  
Heating Degree Days 0 7  
Month to date heating degree days 171 134  
Since 1 July heating degree days 5921 5789  
Cooling Degree Days 6 1  
Month to date cooling degree days 26 13  
Year to date cooling degree days 26 17  
Growing Degree Days 20 (Base 50)    
Moisture  
Dew Point 43 °F    
Average Humidity 44    
Maximum Humidity 66    
Minimum Humidity 22    
Precipitation  
Precipitation 0.00 in 0.10 in 1.53 in (1969)
Month to date precipitation 0.50 1.23  
Year to date precipitation 3.59 4.76  
Snow  
Snow 0.00 in 0.10 in - ()
Month to date snowfall 3.5 0.5  
Since 1 July snowfall 59.2 35.5  
Snow Depth 0.00 in    
Sea Level Pressure  
Sea Level Pressure 29.74 in    
Wind  
Wind Speed 11 mph (ENE)    
Max Wind Speed 22 mph    
Max Gust Speed 26 mph    
Visibility 10 miles    
Events      
T = Trace of Precipitation, MM = Missing Value Source: NWS Daily Summary

Daily Weather History Graph

Daily Weather History Graph

Search for Another Location

Airport or City:

Trip Planner

Search our weather history database for the weather conditions in past years. The results will help you decide how hot, cold, wet, or windy it might be!

Date:

Astronomy

May. 15, 2013 Rise Set
Actual Time 5:32 AM MDT 7:53 PM MDT
Civil Twilight 5:02 AM MDT 8:24 PM MDT
Nautical Twilight 4:25 AM MDT 9:01 PM MDT
Astronomical Twilight 3:44 AM MDT 9:43 PM MDT
Moon 10:10 AM MDT (5/15) No Moon Set
Length of Visible Light 15h 21m
Length of Day
14h 21m
Waxing Crescent, 27% of the Moon is Illuminated
May 15
Waxing Crescent
May 17
First Quarter
May 24
Full
May 31
Last Quarter
Jun 8
New

Hourly Weather History & Observations

Time (MDT) Temp. Dew Point Humidity Pressure Visibility Wind Dir Wind Speed Gust Speed Precip Events Conditions
12:53 AM 66.0 °F 44.1 °F 45% 29.73 in 10.0 mi East 3.5 mph - N/A   Clear
1:53 AM 64.0 °F 45.0 °F 50% 29.72 in 10.0 mi West 5.8 mph - N/A   Clear
2:53 AM 64.0 °F 44.1 °F 48% 29.72 in 10.0 mi WSW 4.6 mph - N/A   Clear
3:53 AM 57.9 °F 44.1 °F 60% 29.72 in 10.0 mi West 5.8 mph - N/A   Clear
4:53 AM 57.0 °F 43.0 °F 59% 29.74 in 10.0 mi NNW 16.1 mph - N/A   Clear
5:53 AM 55.9 °F 44.1 °F 64% 29.74 in 10.0 mi NW 5.8 mph - N/A   Clear
6:53 AM 60.1 °F 46.0 °F 60% 29.76 in 10.0 mi NNE 8.1 mph - N/A   Clear
7:53 AM 64.0 °F 46.0 °F 52% 29.76 in 10.0 mi NE 9.2 mph - N/A   Clear
8:53 AM 68.0 °F 44.1 °F 42% 29.77 in 10.0 mi NNE 8.1 mph - N/A   Clear
9:53 AM 75.9 °F 44.1 °F 32% 29.76 in 10.0 mi NNE 11.5 mph - N/A   Clear
10:53 AM 75.0 °F 41.0 °F 29% 29.78 in 10.0 mi NE 13.8 mph - N/A   Clear
11:53 AM 78.1 °F 39.9 °F 25% 29.78 in 10.0 mi ENE 15.0 mph - N/A   Clear
12:53 PM 80.1 °F 41.0 °F 25% 29.77 in 10.0 mi NE 17.3 mph 20.7 mph N/A   Clear
1:53 PM 82.0 °F 42.1 °F 24% 29.76 in 10.0 mi East 17.3 mph 25.3 mph N/A   Clear
2:53 PM 82.0 °F 43.0 °F 25% 29.74 in 10.0 mi ENE 16.1 mph 23.0 mph N/A   Clear
3:53 PM 84.0 °F 41.0 °F 22% 29.72 in 10.0 mi East 11.5 mph 23.0 mph N/A   Clear
4:53 PM 84.9 °F 41.0 °F 21% 29.70 in 10.0 mi East 9.2 mph 19.6 mph N/A   Clear
5:53 PM 82.9 °F 43.0 °F 24% 29.69 in 10.0 mi East 11.5 mph - N/A   Clear
6:53 PM 79.0 °F 42.1 °F 27% 29.70 in 10.0 mi East 10.4 mph - N/A   Clear
7:53 PM 70.0 °F 41.0 °F 35% 29.74 in 10.0 mi East 3.5 mph - N/A   Clear
8:53 PM 66.0 °F 44.1 °F 45% 29.75 in 10.0 mi ESE 6.9 mph - N/A   Clear
9:53 PM 63.0 °F 45.0 °F 52% 29.74 in 10.0 mi SSE 9.2 mph - N/A   Clear
10:53 PM 64.9 °F 46.0 °F 50% 29.76 in 10.0 mi South 12.7 mph - N/A   Clear
11:53 PM 66.0 °F 48.0 °F 52% 29.77 in 10.0 mi West 15.0 mph - N/A   Clear